| time (UTC) | temp F | wind direction | speed MPH | gust MPH | rain 1hr in | rain 24hr in | rain mn in | humidity % | barometer mb |
| 20260901103506 | 71 | 115 | 0.0 | 0.0 | 0.00 | 0.00 | 0.00 | 100 | 1010.1 |
| 20260901103006 | 71 | 109 | 0.0 | 0.0 | 0.00 | 0.00 | 0.00 | 100 | 1010.1 |
| 20260901102505 | 71 | 111 | 0.0 | 0.0 | 0.00 | 0.00 | 0.00 | 100 | 1010.1 |
| 20260901102006 | 71 | 117 | 0.0 | 0.0 | 0.00 | 0.00 | 0.00 | 100 | 1010.1 |
| 20260901101506 | 71 | 118 | 0.0 | 0.0 | 0.00 | 0.00 | 0.00 | 100 | 1010.1 |
| 20260901100505 | 71 | 128 | 0.0 | 5.0 | 0.00 | 0.00 | 0.00 | 100 | 1010.1 |
| 20260901100005 | 71 | 115 | 0.0 | 5.0 | 0.00 | 0.00 | 0.00 | 100 | 1010.1 |
| 20260901094006 | 71 | 96 | 2.0 | 5.0 | 0.00 | 0.00 | 0.00 | 100 | 1010.1 |
| 20260901093506 | 70 | 96 | 2.0 | 5.0 | 0.00 | 0.00 | 0.00 | 100 | 1010.1 |
| 20260901093007 | 70 | 97 | 1.0 | 2.0 | 0.00 | 0.00 | 0.00 | 100 | 1010.1 |
| 20260901092008 | 70 | 58 | 0.0 | 0.0 | 0.00 | 0.00 | 0.00 | 100 | 1010.1 |
| 20260901091507 | 70 | 4 | 0.0 | 0.0 | 0.00 | 0.00 | 0.00 | 100 | 1010.1 |
| 20260901090507 | 70 | 50 | 0.0 | 0.0 | 0.00 | 0.00 | 0.00 | 100 | 1010.1 |
| 20260901090007 | 70 | 76 | 0.0 | 0.0 | 0.00 | 0.00 | 0.00 | 100 | 1010.1 |
| 20260901085507 | 70 | 124 | 0.0 | 0.0 | 0.00 | 0.00 | 0.00 | 100 | 1010.1 |
| 20260901085008 | 70 | 111 | 0.0 | 0.0 | 0.00 | 0.00 | 0.00 | 100 | 1010.1 |
| 20260901084507 | 70 | 111 | 0.0 | 0.0 | 0.00 | 0.00 | 0.00 | 100 | 1010.1 |
| 20260901084008 | 70 | 111 | 0.0 | 0.0 | 0.00 | 0.00 | 0.00 | 100 | 1010.1 |
| 20260901083507 | 70 | 124 | 0.0 | 0.0 | 0.00 | 0.00 | 0.00 | 100 | 1010.1 |
| 20260901083008 | 70 | 58 | 0.0 | 5.0 | 0.00 | 0.00 | 0.00 | 100 | 1010.1 |
| 20260901082507 | 71 | 168 | 0.0 | 5.0 | 0.00 | 0.00 | 0.00 | 100 | 1010.1 |
| 20260901082008 | 71 | 191 | 1.0 | 5.0 | 0.00 | 0.00 | 0.00 | 100 | 1010.1 |
| 20260901081507 | 70 | 172 | 0.0 | 2.0 | 0.00 | 0.00 | 0.00 | 100 | 1010.1 |
| 20260901081008 | 70 | 161 | 0.0 | 5.0 | 0.00 | 0.00 | 0.00 | 100 | 1010.1 |
| 20260901080007 | 70 | 176 | 0.0 | 5.0 | 0.00 | 0.00 | 0.00 | 100 | 1010.1 |
| 20260901075008 | 70 | 181 | 2.0 | 5.0 | 0.00 | 0.00 | 0.00 | 100 | 1010.1 |
| 20260901074508 | 70 | 175 | 2.0 | 5.0 | 0.00 | 0.00 | 0.00 | 100 | 1010.1 |
| 20260901074008 | 70 | 169 | 2.0 | 5.0 | 0.00 | 0.00 | 0.00 | 100 | 1010.1 |
| 20260901073508 | 70 | 194 | 2.0 | 5.0 | 0.00 | 0.00 | 0.00 | 100 | 1010.1 |
| 20260901073008 | 70 | 189 | 4.0 | 7.0 | 0.00 | 0.00 | 0.00 | 100 | 1010.1 |
| 20260901072507 | 70 | 183 | 5.0 | 7.0 | 0.00 | 0.00 | 0.00 | 100 | 1010.1 |
| 20260901071008 | 70 | 174 | 1.0 | 5.0 | 0.00 | 0.00 | 0.00 | 100 | 1010.1 |
| 20260901070508 | 70 | 169 | 0.0 | 2.0 | 0.00 | 0.00 | 0.00 | 100 | 1010.1 |
| 20260901065507 | 70 | 168 | 0.0 | 2.0 | 0.00 | 0.00 | 0.00 | 100 | 1011.1 |
| 20260901065007 | 70 | 179 | 0.0 | 0.0 | 0.00 | 0.00 | 0.00 | 100 | 1011.1 |
| 20260901064507 | 70 | 158 | 0.0 | 0.0 | 0.00 | 0.00 | 0.00 | 100 | 1012.1 |
| 20260901064008 | 70 | 167 | 0.0 | 0.0 | 0.00 | 0.00 | 0.00 | 100 | 1011.8 |
| 20260901063508 | 70 | 153 | 0.0 | 0.0 | 0.00 | 0.00 | 0.00 | 100 | 1012.1 |
| 20260901063008 | 70 | 197 | 0.0 | 0.0 | 0.00 | 0.00 | 0.00 | 100 | 1012.1 |
| 20260901062507 | 70 | 198 | 0.0 | 0.0 | 0.00 | 0.00 | 0.00 | 100 | 1012.1 |
| 20260901062007 | 70 | 197 | 0.0 | 0.0 | 0.00 | 0.00 | 0.00 | 100 | 1012.1 |
| 20260901061507 | 70 | 197 | 0.0 | 0.0 | 0.00 | 0.00 | 0.00 | 100 | 1012.1 |
| 20260901061007 | 70 | 197 | 0.0 | 0.0 | 0.00 | 0.00 | 0.00 | 100 | 1012.1 |
| 20260901060507 | 70 | 188 | 0.0 | 0.0 | 0.00 | 0.00 | 0.00 | 100 | 1012.1 |
| 20260901060007 | 70 | 127 | 0.0 | 0.0 | 0.00 | 0.00 | 0.00 | 100 | 1012.1 |
| 20260901055506 | 70 | 123 | 0.0 | 0.0 | 0.00 | 0.00 | 0.00 | 100 | 1012.1 |
| 20260901055007 | 70 | 124 | 0.0 | 2.0 | 0.00 | 0.00 | 0.00 | 100 | 1012.1 |
| 20260901054506 | 69 | 112 | 0.0 | 2.0 | 0.00 | 0.00 | 0.00 | 100 | 1012.1 |
| 20260901054008 | 70 | 114 | 0.0 | 2.0 | 0.00 | 0.00 | 0.00 | 100 | 1012.1 |
| 20260901053507 | 70 | 112 | 0.0 | 2.0 | 0.00 | 0.00 | 0.00 | 100 | 1012.1 |
| 20260901053008 | 70 | 117 | 0.0 | 0.0 | 0.00 | 0.00 | 0.00 | 100 | 1012.1 |
| 20260901051507 | 70 | 196 | 0.0 | 2.0 | 0.00 | 0.00 | 0.00 | 100 | 1012.1 |
| 20260901051009 | 70 | 206 | 1.0 | 2.0 | 0.00 | 0.00 | 0.00 | 100 | 1012.1 |
| 20260901050507 | 70 | 209 | 2.0 | 2.0 | 0.00 | 0.00 | 0.00 | 100 | 1012.6 |
| 20260901050007 | 69 | 163 | 0.0 | 0.0 | 0.00 | 0.00 | 0.00 | 100 | 1012.1 |
| 20260901045507 | 69 | 179 | 0.0 | 0.0 | 0.00 | 0.00 | 0.00 | 100 | 1012.1 |
| 20260901045008 | 69 | 176 | 0.0 | 0.0 | 0.00 | 0.00 | 0.00 | 100 | 1012.1 |
| 20260901044507 | 69 | 140 | 0.0 | 0.0 | 0.00 | 0.00 | 0.00 | 100 | 1013.1 |
| 20260901044008 | 69 | 140 | 0.0 | 0.0 | 0.00 | 0.00 | 0.00 | 100 | 1013.1 |
| 20260901043508 | 69 | 140 | 0.0 | 0.0 | 0.00 | 0.00 | 0.00 | 100 | 1013.1 |
| 20260901043007 | 69 | 140 | 0.0 | 0.0 | 0.00 | 0.00 | 0.00 | 100 | 1012.4 |
| 20260901042507 | 69 | 140 | 0.0 | 0.0 | 0.00 | 0.00 | 0.00 | 100 | 1012.8 |
| 20260901042008 | 69 | 147 | 0.0 | 0.0 | 0.00 | 0.00 | 0.00 | 100 | 1012.1 |
| 20260901041506 | 69 | 140 | 0.0 | 0.0 | 0.00 | 0.00 | 0.00 | 100 | 1013.1 |
| 20260901041020 | 69 | 131 | 0.0 | 0.0 | 0.00 | 0.00 | 0.00 | 100 | 1013.1 |
| 20260901040507 | 69 | 131 | 0.0 | 0.0 | 0.00 | 0.00 | 0.00 | 100 | 1013.1 |
| 20260901040006 | 69 | 124 | 0.0 | 0.0 | 0.00 | 0.00 | 0.00 | 100 | 1013.1 |
| 20260901034507 | 69 | 119 | 0.0 | 0.0 | 0.00 | 0.00 | 0.00 | 100 | 1013.1 |
| 20260901034007 | 69 | 114 | 0.0 | 0.0 | 0.00 | 0.00 | 0.00 | 100 | 1013.1 |
| 20260901033508 | 69 | 132 | 0.0 | 0.0 | 0.00 | 0.00 | 0.00 | 100 | 1013.1 |
| 20260901033007 | 69 | 127 | 0.0 | 0.0 | 0.00 | 0.00 | 0.00 | 100 | 1013.1 |
| 20260901032507 | 69 | 122 | 0.0 | 0.0 | 0.00 | 0.00 | 0.00 | 100 | 1013.1 |
| 20260901032007 | 69 | 107 | 0.0 | 0.0 | 0.00 | 0.00 | 0.00 | 100 | 1013.1 |
| 20260901031507 | 69 | 107 | 0.0 | 0.0 | 0.00 | 0.00 | 0.00 | 100 | 1013.1 |
| 20260901031008 | 69 | 107 | 0.0 | 0.0 | 0.00 | 0.00 | 0.00 | 100 | 1013.1 |
| 20260901030507 | 69 | 92 | 0.0 | 0.0 | 0.00 | 0.00 | 0.00 | 100 | 1013.1 |
| 20260901030007 | 69 | 92 | 0.0 | 0.0 | 0.00 | 0.00 | 0.00 | 100 | 1013.1 |
| 20260901025506 | 69 | 106 | 0.0 | 0.0 | 0.00 | 0.00 | 0.00 | 100 | 1013.1 |
| 20260901025007 | 69 | 123 | 0.0 | 0.0 | 0.00 | 0.00 | 0.00 | 100 | 1013.1 |
| 20260901024506 | 69 | 113 | 0.0 | 0.0 | 0.00 | 0.00 | 0.00 | 100 | 1013.1 |
| 20260901023507 | 70 | 187 | 0.0 | 2.0 | 0.00 | 0.00 | 0.00 | 100 | 1013.1 |
| 20260901023007 | 69 | 196 | 0.0 | 2.0 | 0.00 | 0.00 | 0.00 | 100 | 1013.1 |
| 20260901022506 | 69 | 180 | 0.0 | 2.0 | 0.00 | 0.00 | 0.00 | 100 | 1013.1 |
| 20260901022007 | 69 | 173 | 0.0 | 0.0 | 0.00 | 0.00 | 0.00 | 100 | 1013.1 |
| 20260901021007 | 69 | 175 | 0.0 | 0.0 | 0.00 | 0.00 | 0.00 | 100 | 1013.1 |
| 20260901020507 | 69 | 170 | 0.0 | 0.0 | 0.00 | 0.00 | 0.00 | 100 | 1013.1 |
| 20260901020007 | 69 | 167 | 0.0 | 2.0 | 0.00 | 0.00 | 0.00 | 100 | 1013.1 |
| 20260901014007 | 69 | 172 | 0.0 | 0.0 | 0.00 | 0.00 | 0.00 | 100 | 1013.1 |
| 20260901013507 | 69 | 160 | 0.0 | 0.0 | 0.00 | 0.00 | 0.00 | 100 | 1013.1 |
| 20260901013007 | 69 | 150 | 0.0 | 0.0 | 0.00 | 0.00 | 0.00 | 100 | 1013.1 |
| 20260901012507 | 69 | 176 | 0.0 | 0.0 | 0.00 | 0.00 | 0.00 | 100 | 1013.1 |
| 20260901012007 | 69 | 147 | 0.0 | 0.0 | 0.00 | 0.00 | 0.00 | 100 | 1013.1 |
| 20260901011506 | 69 | 117 | 0.0 | 0.0 | 0.00 | 0.00 | 0.00 | 100 | 1013.1 |
| 20260901011008 | 69 | 122 | 0.0 | 0.0 | 0.00 | 0.00 | 0.00 | 100 | 1013.1 |
| 20260901010508 | 69 | 133 | 0.0 | 2.0 | 0.00 | 0.00 | 0.00 | 100 | 1013.1 |
| 20260901010007 | 69 | 129 | 0.0 | 2.0 | 0.00 | 0.00 | 0.00 | 100 | 1013.1 |
| 20260901005507 | 69 | 107 | 0.0 | 0.0 | 0.00 | 0.00 | 0.00 | 100 | 1013.1 |
| 20260901005008 | 69 | 119 | 0.0 | 0.0 | 0.00 | 0.00 | 0.00 | 100 | 1013.1 |
| 20260901004507 | 69 | 123 | 0.0 | 0.0 | 0.00 | 0.00 | 0.00 | 100 | 1013.1 |
| 20260901003507 | 69 | 118 | 0.0 | 0.0 | 0.00 | 0.00 | 0.00 | 100 | 1013.1 |
| 20260901003007 | 69 | 134 | 0.0 | 0.0 | 0.00 | 0.00 | 0.00 | 100 | 1013.1 |
| 20260901002506 | 69 | 137 | 0.0 | 0.0 | 0.00 | 0.00 | 0.00 | 100 | 1013.1 |
| 20260901002007 | 69 | 117 | 0.0 | 2.0 | 0.00 | 0.00 | 0.00 | 100 | 1013.1 |
| 20260901001507 | 69 | 111 | 0.0 | 2.0 | 0.00 | 0.00 | 0.00 | 100 | 1013.1 |
| 20260901001007 | 69 | 115 | 0.0 | 2.0 | 0.00 | 0.00 | 0.00 | 100 | 1013.1 |
| 20260901000507 | 69 | 110 | 0.0 | 2.0 | 0.00 | 0.00 | 0.00 | 100 | 1013.1 |
| 20260901000006 | 69 | 132 | 0.0 | 0.0 | 0.00 | 0.00 | 0.00 | 100 | 1013.1 |
| 20260831235506 | 69 | 136 | 0.0 | 0.0 | 0.00 | 0.00 | 0.00 | 100 | 1013.1 |
| 20260831235007 | 69 | 135 | 0.0 | 0.0 | 0.00 | 0.00 | 0.00 | 100 | 1013.1 |
| 20260831234506 | 69 | 133 | 0.0 | 0.0 | 0.00 | 0.00 | 0.00 | 100 | 1013.1 |
| 20260831234007 | 69 | 133 | 0.0 | 0.0 | 0.00 | 0.00 | 0.00 | 100 | 1013.1 |
| 20260831233507 | 69 | 133 | 0.0 | 0.0 | 0.00 | 0.00 | 0.00 | 100 | 1013.1 |
| 20260831233007 | 69 | 134 | 0.0 | 0.0 | 0.00 | 0.00 | 0.00 | 100 | 1013.1 |
| 20260831232506 | 69 | 144 | 0.0 | 0.0 | 0.00 | 0.00 | 0.00 | 100 | 1013.1 |
| 20260831232006 | 69 | 147 | 0.0 | 0.0 | 0.00 | 0.00 | 0.00 | 100 | 1013.1 |
| 20260831231506 | 69 | 148 | 0.0 | 0.0 | 0.00 | 0.00 | 0.00 | 100 | 1013.1 |
| 20260831231007 | 69 | 148 | 0.0 | 0.0 | 0.00 | 0.00 | 0.00 | 100 | 1013.1 |
| 20260831230507 | 69 | 150 | 0.0 | 0.0 | 0.00 | 0.00 | 0.00 | 99 | 1013.1 |
| 20260831230007 | 69 | 142 | 0.0 | 0.0 | 0.00 | 0.00 | 0.00 | 100 | 1013.1 |
| 20260831225007 | 69 | 141 | 0.0 | 0.0 | 0.00 | 0.00 | 0.00 | 99 | 1013.1 |
| 20260831224507 | 69 | 140 | 0.0 | 0.0 | 0.00 | 0.00 | 0.00 | 99 | 1013.1 |
| 20260831224007 | 69 | 141 | 0.0 | 0.0 | 0.00 | 0.00 | 0.00 | 99 | 1013.1 |
| 20260831223507 | 69 | 141 | 0.0 | 0.0 | 0.00 | 0.00 | 0.00 | 99 | 1013.2 |
| 20260831223007 | 69 | 140 | 0.0 | 0.0 | 0.00 | 0.00 | 0.00 | 99 | 1013.5 |
| 20260831222007 | 69 | 135 | 0.0 | 0.0 | 0.00 | 0.00 | 0.00 | 99 | 1013.6 |
| 20260831221506 | 69 | 119 | 0.0 | 0.0 | 0.00 | 0.00 | 0.00 | 99 | 1013.1 |
| 20260831221007 | 69 | 125 | 0.0 | 0.0 | 0.00 | 0.00 | 0.00 | 99 | 1013.5 |
| 20260831220507 | 69 | 130 | 0.0 | 0.0 | 0.00 | 0.00 | 0.00 | 99 | 1013.1 |
| 20260831220007 | 69 | 126 | 0.0 | 0.0 | 0.00 | 0.00 | 0.00 | 99 | 1013.1 |
| 20260831215506 | 69 | 131 | 0.0 | 0.0 | 0.00 | 0.00 | 0.00 | 99 | 1013.1 |
| 20260831215007 | 69 | 129 | 0.0 | 0.0 | 0.00 | 0.00 | 0.00 | 99 | 1013.1 |
| 20260831214507 | 69 | 113 | 0.0 | 0.0 | 0.00 | 0.00 | 0.00 | 99 | 1013.1 |
| 20260831213506 | 69 | 110 | 0.0 | 0.0 | 0.00 | 0.00 | 0.00 | 99 | 1014.1 |
| 20260831213007 | 69 | 119 | 0.0 | 0.0 | 0.00 | 0.00 | 0.00 | 99 | 1014.1 |
| 20260831212007 | 69 | 150 | 0.0 | 0.0 | 0.00 | 0.00 | 0.00 | 99 | 1013.6 |
| 20260831211007 | 69 | 133 | 0.0 | 0.0 | 0.00 | 0.00 | 0.00 | 99 | 1014.1 |
| 20260831210506 | 69 | 122 | 0.0 | 5.0 | 0.00 | 0.00 | 0.00 | 99 | 1014.1 |
| 20260831210006 | 69 | 122 | 1.0 | 5.0 | 0.00 | 0.00 | 0.00 | 99 | 1014.1 |
| 20260831205507 | 69 | 104 | 5.0 | 5.0 | 0.00 | 0.00 | 0.00 | 99 | 1014.1 |
| 20260831205007 | 69 | 84 | 5.0 | 5.0 | 0.00 | 0.00 | 0.00 | 99 | 1014.1 |
| 20260831204506 | 69 | 86 | 5.0 | 5.0 | 0.00 | 0.00 | 0.00 | 99 | 1014.1 |
| 20260831204006 | 69 | 82 | 5.0 | 5.0 | 0.00 | 0.00 | 0.00 | 99 | 1014.1 |
| 20260831203506 | 69 | 84 | 5.0 | 5.0 | 0.00 | 0.00 | 0.00 | 99 | 1014.1 |
| 20260831202506 | 69 | 145 | 0.0 | 0.0 | 0.00 | 0.00 | 0.00 | 99 | 1013.3 |
| 20260831201506 | 69 | 146 | 0.0 | 0.0 | 0.00 | 0.00 | 0.00 | 99 | 1013.1 |
| 20260831201007 | 69 | 130 | 0.0 | 0.0 | 0.00 | 0.00 | 0.00 | 99 | 1014.1 |
| 20260831195506 | 69 | 175 | 1.0 | 5.0 | 0.00 | 0.00 | 0.00 | 98 | 1014.1 |
| 20260831195007 | 69 | 154 | 4.0 | 7.0 | 0.00 | 0.00 | 0.00 | 98 | 1014.1 |
| 20260831194506 | 69 | 177 | 3.0 | 7.0 | 0.00 | 0.00 | 0.00 | 98 | 1014.1 |
| 20260831194007 | 69 | 196 | 4.0 | 7.0 | 0.00 | 0.00 | 0.00 | 98 | 1014.1 |
| 20260831193507 | 69 | 187 | 5.0 | 5.0 | 0.00 | 0.00 | 0.00 | 98 | 1014.1 |
| 20260831192506 | 69 | 191 | 5.0 | 5.0 | 0.00 | 0.00 | 0.00 | 98 | 1014.1 |
| 20260831192006 | 69 | 194 | 5.0 | 5.0 | 0.00 | 0.00 | 0.00 | 97 | 1014.1 |
| 20260831191007 | 69 | 213 | 5.0 | 7.0 | 0.00 | 0.00 | 0.00 | 97 | 1014.1 |
| 20260831190507 | 69 | 209 | 5.0 | 7.0 | 0.00 | 0.00 | 0.00 | 97 | 1014.1 |
| 20260831190006 | 69 | 199 | 5.0 | 7.0 | 0.00 | 0.00 | 0.00 | 97 | 1014.1 |
| 20260831185007 | 69 | 210 | 5.0 | 5.0 | 0.00 | 0.00 | 0.00 | 97 | 1014.6 |
| 20260831184007 | 69 | 208 | 2.0 | 5.0 | 0.00 | 0.00 | 0.00 | 97 | 1014.6 |
| 20260831183006 | 69 | 179 | 1.0 | 5.0 | 0.00 | 0.00 | 0.00 | 97 | 1014.6 |
| 20260831180506 | 69 | 190 | 2.0 | 7.0 | 0.00 | 0.00 | 0.00 | 97 | 1015.1 |
| 20260831180006 | 69 | 185 | 2.0 | 5.0 | 0.00 | 0.00 | 0.00 | 97 | 1014.8 |
| 20260831175506 | 69 | 207 | 2.0 | 5.0 | 0.00 | 0.00 | 0.00 | 97 | 1015.1 |
| 20260831175007 | 69 | 189 | 1.0 | 5.0 | 0.00 | 0.00 | 0.00 | 97 | 1015.1 |
| 20260831174006 | 69 | 185 | 2.0 | 5.0 | 0.00 | 0.00 | 0.00 | 96 | 1015.1 |
| 20260831173507 | 69 | 163 | 2.0 | 7.0 | 0.00 | 0.00 | 0.00 | 96 | 1015.1 |
| 20260831173006 | 69 | 210 | 2.0 | 7.0 | 0.00 | 0.00 | 0.00 | 96 | 1015.1 |
| 20260831172505 | 69 | 200 | 5.0 | 7.0 | 0.00 | 0.00 | 0.00 | 96 | 1015.1 |
| 20260831172006 | 69 | 191 | 5.0 | 7.0 | 0.00 | 0.00 | 0.00 | 96 | 1015.1 |
| 20260831171006 | 69 | 181 | 5.0 | 7.0 | 0.00 | 0.00 | 0.00 | 95 | 1015.1 |
| 20260831170506 | 69 | 190 | 7.0 | 9.0 | 0.00 | 0.00 | 0.00 | 95 | 1015.1 |
| 20260831165505 | 70 | 193 | 3.0 | 5.0 | 0.00 | 0.00 | 0.00 | 95 | 1015.1 |
| 20260831165006 | 70 | 199 | 5.0 | 5.0 | 0.00 | 0.00 | 0.00 | 95 | 1015.1 |
| 20260831164506 | 70 | 204 | 5.0 | 7.0 | 0.00 | 0.00 | 0.00 | 95 | 1015.1 |
| 20260831164007 | 70 | 191 | 5.0 | 7.0 | 0.00 | 0.00 | 0.00 | 95 | 1015.1 |
| 20260831163006 | 70 | 175 | 5.0 | 9.0 | 0.00 | 0.00 | 0.00 | 96 | 1016.1 |
| 20260831162506 | 70 | 191 | 7.0 | 9.0 | 0.00 | 0.00 | 0.00 | 96 | 1016.1 |
| 20260831162007 | 70 | 188 | 2.0 | 5.0 | 0.00 | 0.00 | 0.00 | 96 | 1016.1 |
| 20260831161006 | 70 | 188 | 2.0 | 7.0 | 0.00 | 0.00 | 0.00 | 96 | 1016.1 |
| 20260831160506 | 70 | 155 | 1.0 | 5.0 | 0.00 | 0.00 | 0.00 | 97 | 1016.1 |
| 20260831160006 | 70 | 187 | 2.0 | 7.0 | 0.00 | 0.00 | 0.00 | 97 | 1016.1 |
| 20260831155506 | 70 | 167 | 1.0 | 7.0 | 0.00 | 0.00 | 0.00 | 97 | 1016.1 |
| 20260831155007 | 70 | 186 | 0.0 | 5.0 | 0.00 | 0.00 | 0.00 | 97 | 1016.1 |
| 20260831154506 | 70 | 177 | 0.0 | 5.0 | 0.00 | 0.00 | 0.00 | 98 | 1016.1 |
| 20260831154005 | 70 | 156 | 0.0 | 2.0 | 0.00 | 0.00 | 0.00 | 98 | 1016.1 |
| 20260831153506 | 69 | 145 | 0.0 | 2.0 | 0.00 | 0.00 | 0.00 | 98 | 1016.1 |
| 20260831153006 | 69 | 169 | 0.0 | 2.0 | 0.00 | 0.00 | 0.00 | 98 | 1016.1 |
| 20260831152506 | 69 | 143 | 0.0 | 2.0 | 0.00 | 0.00 | 0.00 | 98 | 1016.1 |
| 20260831152006 | 69 | 167 | 0.0 | 2.0 | 0.00 | 0.00 | 0.00 | 98 | 1016.1 |
| 20260831151506 | 68 | 158 | 0.0 | 2.0 | 0.00 | 0.00 | 0.00 | 98 | 1016.1 |
| 20260831151006 | 68 | 161 | 0.0 | 2.0 | 0.00 | 0.00 | 0.00 | 98 | 1016.1 |
| 20260831150006 | 68 | 184 | 5.0 | 5.0 | 0.00 | 0.00 | 0.00 | 98 | 1016.1 |
| 20260831145507 | 68 | 199 | 5.0 | 5.0 | 0.00 | 0.00 | 0.00 | 98 | 1016.1 |
| 20260831145006 | 68 | 202 | 2.0 | 5.0 | 0.00 | 0.00 | 0.00 | 98 | 1016.1 |
| 20260831144505 | 68 | 189 | 0.0 | 5.0 | 0.00 | 0.00 | 0.00 | 98 | 1016.1 |
| 20260831144006 | 68 | 153 | 0.0 | 5.0 | 0.00 | 0.00 | 0.00 | 98 | 1016.1 |
| 20260831143506 | 68 | 188 | 0.0 | 5.0 | 0.00 | 0.00 | 0.00 | 98 | 1016.1 |
| 20260831143006 | 68 | 154 | 1.0 | 5.0 | 0.00 | 0.00 | 0.00 | 98 | 1016.1 |
| 20260831142506 | 68 | 193 | 2.0 | 2.0 | 0.00 | 0.00 | 0.00 | 98 | 1016.1 |
| 20260831142006 | 68 | 194 | 0.0 | 2.0 | 0.00 | 0.00 | 0.00 | 98 | 1016.1 |
| 20260831141505 | 68 | 191 | 0.0 | 0.0 | 0.00 | 0.00 | 0.00 | 98 | 1016.1 |
| 20260831141006 | 68 | 151 | 0.0 | 0.0 | 0.00 | 0.00 | 0.00 | 98 | 1016.1 |
| 20260831140507 | 68 | 147 | 0.0 | 0.0 | 0.00 | 0.00 | 0.00 | 97 | 1016.1 |
| 20260831140006 | 68 | 152 | 0.0 | 0.0 | 0.00 | 0.00 | 0.00 | 97 | 1016.1 |
| 20260831135506 | 68 | 164 | 0.0 | 5.0 | 0.00 | 0.00 | 0.00 | 97 | 1016.1 |
| 20260831135006 | 68 | 154 | 0.0 | 5.0 | 0.00 | 0.00 | 0.00 | 97 | 1016.1 |
| 20260831134506 | 68 | 184 | 1.0 | 5.0 | 0.00 | 0.00 | 0.00 | 97 | 1016.1 |
| 20260831134006 | 68 | 181 | 0.0 | 5.0 | 0.00 | 0.00 | 0.00 | 97 | 1016.1 |
| 20260831133006 | 68 | 178 | 0.0 | 5.0 | 0.00 | 0.00 | 0.00 | 97 | 1016.1 |
| 20260831132505 | 67 | 156 | 0.0 | 5.0 | 0.00 | 0.00 | 0.00 | 97 | 1016.1 |
| 20260831132006 | 67 | 182 | 2.0 | 5.0 | 0.00 | 0.00 | 0.00 | 97 | 1016.1 |
| 20260831131506 | 67 | 171 | 2.0 | 5.0 | 0.00 | 0.00 | 0.00 | 97 | 1016.1 |
| 20260831131006 | 67 | 180 | 1.0 | 5.0 | 0.00 | 0.00 | 0.00 | 97 | 1016.1 |
| 20260831130507 | 67 | 171 | 0.0 | 2.0 | 0.00 | 0.00 | 0.00 | 96 | 1016.1 |
| 20260831125505 | 67 | 165 | 0.0 | 0.0 | 0.00 | 0.00 | 0.00 | 96 | 1016.1 |
| 20260831125006 | 67 | 173 | 0.0 | 0.0 | 0.00 | 0.00 | 0.00 | 96 | 1016.1 |
| 20260831124505 | 67 | 174 | 0.0 | 0.0 | 0.00 | 0.00 | 0.00 | 96 | 1016.1 |
| 20260831124006 | 67 | 181 | 0.0 | 0.0 | 0.00 | 0.00 | 0.00 | 96 | 1016.1 |
| 20260831123006 | 67 | 178 | 0.0 | 0.0 | 0.00 | 0.00 | 0.00 | 96 | 1016.1 |
| 20260831122006 | 67 | 198 | 0.0 | 2.0 | 0.00 | 0.00 | 0.00 | 95 | 1016.1 |
| 20260831121006 | 68 | 170 | 0.0 | 5.0 | 0.00 | 0.00 | 0.00 | 95 | 1016.1 |
| 20260831120506 | 68 | 178 | 2.0 | 5.0 | 0.00 | 0.00 | 0.00 | 95 | 1016.1 |
| 20260831120006 | 68 | 192 | 2.0 | 5.0 | 0.00 | 0.00 | 0.00 | 95 | 1016.1 |
| 20260831115506 | 68 | 185 | 0.0 | 2.0 | 0.00 | 0.00 | 0.00 | 95 | 1016.1 |
| 20260831114505 | 68 | 153 | 0.0 | 0.0 | 0.00 | 0.00 | 0.00 | 95 | 1016.1 |
| 20260831114007 | 68 | 149 | 0.0 | 5.0 | 0.00 | 0.00 | 0.00 | 95 | 1016.1 |
| 20260831113506 | 68 | 149 | 0.0 | 5.0 | 0.00 | 0.00 | 0.00 | 95 | 1016.1 |
| 20260831113006 | 67 | 178 | 4.0 | 5.0 | 0.00 | 0.00 | 0.00 | 95 | 1016.1 |
| 20260831112506 | 67 | 187 | 2.0 | 7.0 | 0.00 | 0.00 | 0.00 | 95 | 1016.1 |
| 20260831112006 | 67 | 166 | 5.0 | 7.0 | 0.00 | 0.00 | 0.00 | 95 | 1016.1 |
| 20260831111506 | 67 | 168 | 2.0 | 5.0 | 0.00 | 0.00 | 0.00 | 95 | 1016.1 |
| 20260831111006 | 67 | 174 | 0.0 | 5.0 | 0.00 | 0.00 | 0.00 | 95 | 1016.1 |
| 20260831110506 | 67 | 167 | 2.0 | 5.0 | 0.00 | 0.00 | 0.00 | 95 | 1016.1 |
| 20260831110006 | 67 | 174 | 2.0 | 5.0 | 0.00 | 0.00 | 0.00 | 95 | 1016.1 |
| 20260831105505 | 67 | 191 | 2.0 | 5.0 | 0.00 | 0.00 | 0.00 | 95 | 1016.1 |
| 20260831104505 | 67 | 179 | 5.0 | 7.0 | 0.00 | 0.00 | 0.00 | 95 | 1016.1 |
| 20260831104006 | 67 | 194 | 5.0 | 7.0 | 0.00 | 0.00 | 0.00 | 95 | 1016.1 |